Temperature
2 3 3 3 3 3 3 3 3 4 4 5 5 5 5 6 6 6 6 6 6 6 6 6 6 6 6 6 5 5 5 5 5 4 4 4 4 4 4 4 4 4 4 4
2 2 2 2 3 3 3 3 3 3 4 5 5 5 5 5 6 5 6 6 6 6 6 6 6 5 5 5 5 5 5 5 4 4 4 4 4 4 3 3 3 3 3 3
2 2 2 2 2 3 3 3 3 3 4 4 4 4 4 5 6 5 6 6 5 5 5 5 5 5 5 5 5 4 4 4 4 3 3 3 3 3 3 3 3 3 3 3
0 1 1 3 3 3 3 3 3 3 3 3 3 4 5 5 5 5 5 5 5 5 5 5 5 5 5 4 4 4 4 3 3 3 3 3 3 2 2 2 2 2 2 2
-0 0 1 2 2 2 2 2 2 2 3 3 3 3 3 4 4 5 5 5 5 5 5 5 4 4 4 4 3 3 3 3 2 2 2 2 2 2 2 2 2 2 2 2
-0 0 1 2 2 2 2 2 2 2 2 2 2 1 2 4 4 4 4 4 4 4 4 4 4 3 3 3 3 2 2 2 2 2 2 2 1 1 1 1 1 1 1 1
-0 0 0 1 2 2 2 2 2 2 2 2 1 2 3 3 3 3 3 4 3 3 3 3 3 3 3 3 2 2 2 1 1 1 1 1 1 1 0 0 0 0 0 0
-1 -1 0 1 1 1 1 2 2 2 2 2 2 2 2 2 2 3 3 3 3 3 3 3 2 2 2 2 2 1 1 1 1 1 0 0 0 0 -0 -0 -0 -0 -1 -0
-1 0 0 1 2 2 2 2 2 2 2 2 2 1 1 1 2 2 2 2 2 2 2 2 2 1 1 1 1 1 0 0 0 -0 -0 -0 -1 -1 -1 -1 -1 -1 -2 -2
-2 -1 -0 1 1 2 2 1 1 1 1 1 1 1 1 1 1 1 1 1 1 1 1 1 1 1 0 0 0 -0 -0 -0 -1 -1 -1 -1 -1 -1 -1 -2 -2 -2 -3 -3
-2 -2 -1 1 1 1 1 1 1 1 1 1 1 0 0 0 0 0 0 0 0 0 0 0 0 -0 -0 -1 -1 -1 -1 -1 -1 -2 -2 -2 -2 -2 -2 -2 -3 -3 -3 -4
-1 -1 -1 -0 1 1 0 -0 0 -0 -0 0 0 -0 -0 -0 -1 -1 -1 -1 -0 -0 -1 -1 -1 -1 -1 -1 -1 -2 -2 -2 -2 -2 -3 -3 -3 -3 -3 -3 -3 -3 -4 -4
-0 -0 -0 -0 -0 -1 -1 -1 -1 -1 -1 -1 -1 -1 -1 -1 -1 -1 -1 -2 -1 -1 -2 -2 -2 -2 -2 -2 -2 -2 -3 -3 -3 -3 -4 -4 -4 -4 -4 -3 -3 -3 -4 -4
-1 -1 -2 -2 -2 -2 -2 -2 -2 -2 -2 -2 -2 -2 -2 -2 -2 -2 -2 -2 -2 -2 -2 -2 -2 -3 -3 -3 -3 -3 -3 -4 -4 -4 -4 -4 -4 -4 -5 -5 -4 -4 -4 -4
-2 -2 -2 -2 -3 -3 -3 -3 -3 -3 -3 -3 -3 -3 -3 -3 -3 -3 -3 -3 -3 -3 -3 -3 -3 -3 -3 -4 -4 -4 -4 -4 -5 -5 -5 -5 -5 -5 -5 -5 -5 -5 -5 -4
-3 -3 -3 -3 -4 -4 -4 -4 -4 -4 -4 -4 -4 -4 -4 -4 -4 -4 -4 -4 -4 -4 -4 -4 -4 -4 -4 -4 -5 -5 -5 -5 -5 -5 -6 -6 -5 -6 -6 -6 -6 -5 -5 -5
-4 -5 -5 -5 -5 -5 -5 -5 -5 -5 -5 -5 -5 -5 -5 -5 -5 -5 -5 -5 -5 -5 -5 -5 -5 -5 -5 -5 -5 -5 -5 -6 -6 -6 -6 -6 -6 -6 -6 -6 -6 -6 -6 -6
-5 -5 -5 -5 -5 -5 -6 -6 -6 -6 -6 -6 -6 -6 -6 -6 -6 -6 -6 -6 -6 -5 -5 -6 -6 -6 -6 -6 -6 -6 -6 -6 -6 -7 -6 -6 -6 -6 -6 -6 -6 -6 -6 -6
-5 -5 -5 -6 -6 -6 -6 -6 -6 -6 -6 -6 -7 -7 -6 -6 -6 -7 -7 -6 -6 -6 -6 -6 -7 -7 -7 -7 -7 -7 -7 -7 -7 -7 -7 -7 -7 -7 -7 -7 -7 -7 -7 -6
-6 -6 -6 -6 -6 -6 -6 -7 -7 -7 -7 -7 -7 -7 -7 -7 -7 -7 -7 -7 -7 -7 -7 -7 -7 -7 -7 -7 -8 -8 -8 -8 -8 -7 -7 -7 -7 -7 -7 -7 -7 -7 -7 -7
-6 -7 -7 -7 -7 -7 -7 -7 -7 -7 -7 -8 -8 -8 -8 -8 -8 -8 -8 -8 -7 -8 -8 -8 -8 -8 -8 -8 -8 -8 -8 -8 -8 -8 -8 -8 -8 -8 -8 -7 -7 -7 -7 -7
-7 -7 -7 -7 -7 -7 -8 -8 -8 -8 -8 -8 -8 -8 -8 -8 -8 -8 -8 -8 -8 -8 -8 -8 -8 -9 -9 -9 -9 -9 -9 -9 -8 -8 -8 -8 -8 -8 -8 -8 -8 -8 -7 -7
-8 -8 -8 -8 -8 -8 -8 -8 -8 -8 -8 -8 -9 -9 -9 -9 -9 -9 -9 -9 -9 -9 -9 -9 -9 -9 -9 -9 -9 -9 -9 -9 -9 -9 -9 -9 -9 -8 -8 -8 -8 -8 -8 -8
-8 -8 -8 -8 -8 -8 -8 -8 -9 -9 -9 -9 -9 -9 -9 -9 -9 -9 -9 -9 -9 -9 -9 -9 -10 -10 -9 -9 -9 -9 -9 -9 -9 -9 -9 -9 -9 -9 -9 -9 -8 -8 -8 -8
-9 -9 -9 -9 -9 -9 -9 -9 -9 -9 -9 -9 -9 -9 -9 -9 -10 -9 -9 -10 -10 -10 -10 -10 -10 -10 -10 -10 -10 -10 -9 -9 -9 -9 -9 -9 -9 -9 -9 -9 -9 -9 -8 -8
-9 -9 -9 -9 -9 -9 -10 -10 -10 -10 -10 -9 -9 -9 -9 -10 -10 -10 -10 -10 -10 -10 -10 -10 -10 -10 -10 -10 -10 -10 -10 -10 -10 -10 -9 -9 -9 -9 -9 -9 -9 -9 -9 -8
-9 -10 -10 -9 -10 -10 -10 -10 -10 -10 -10 -10 -10 -10 -10 -10 -10 -10 -10 -10 -10 -10 -10 -10 -10 -10 -10 -10 -10 -10 -10 -10 -10 -10 -10 -9 -9 -9 -9 -9 -9 -9 -9 -8
Wind_Speed
6 5 4 6 8 9 10 10 9 9 10 12 9 7 6 5 4 3 3 3 3 3 3 2 2 2 2 3 3 2 2 3 4 4 4 4 5 5 5 6 6 6 6 7
5 5 5 7 9 11 11 10 10 11 13 11 7 5 5 5 5 5 5 5 4 4 3 3 3 3 3 3 3 2 2 3 4 4 4 5 5 5 6 6 6 6 6 7
4 2 2 7 10 11 7 7 8 12 13 6 4 6 7 6 5 6 6 6 5 5 4 4 4 3 2 3 3 2 3 4 4 4 4 5 5 5 6 6 6 7 7 7
2 1 7 6 3 6 8 8 8 7 7 5 6 6 4 4 5 5 5 4 4 4 3 3 2 1 1 2 2 2 3 4 4 4 4 5 5 6 6 6 6 7 6 6
3 4 7 7 3 3 5 6 5 8 8 6 2 2 3 2 2 3 3 3 3 2 2 2 1 1 1 2 2 3 4 4 4 4 5 5 6 6 6 6 7 7 6 6
3 4 6 5 3 2 3 5 4 4 5 3 2 1 4 2 2 1 1 1 1 0 1 1 1 0 1 2 3 3 4 5 4 4 4 5 6 6 6 6 7 7 7 6
5 5 6 5 3 2 3 5 5 3 3 2 4 5 3 1 1 1 1 1 0 1 1 0 0 1 1 2 3 4 4 5 5 5 5 5 5 5 6 6 7 7 8 7
4 4 7 3 3 4 5 3 3 2 1 1 2 1 1 1 1 2 2 1 1 1 1 1 1 1 1 3 4 4 4 5 5 5 5 5 5 6 6 6 7 7 8 8
7 7 4 2 4 3 2 3 3 2 2 0 0 1 0 1 1 2 2 1 1 1 1 2 2 1 2 4 4 4 4 5 5 6 5 5 5 6 6 5 5 6 6 7
4 7 6 5 4 4 2 3 3 2 1 1 0 1 1 1 2 2 2 2 1 1 1 3 3 3 3 4 4 3 4 5 5 5 6 5 4 4 4 5 6 6 7 8
6 7 5 4 3 3 3 2 2 2 1 1 0 1 1 1 2 2 2 2 1 1 2 3 3 4 4 4 4 4 5 5 5 5 5 5 5 4 5 4 5 7 7 7
7 6 4 5 3 2 1 2 2 2 3 2 1 0 1 1 1 1 2 3 3 3 3 4 4 5 5 4 3 3 4 5 4 4 5 5 5 6 7 8 10 11 12 11
5 2 2 3 2 2 1 2 2 2 1 2 2 1 1 1 2 2 2 3 3 3 3 4 4 5 6 5 4 4 4 5 5 5 5 5 5 6 8 9 10 11 12 13
1 0 1 2 2 3 2 2 3 3 3 2 2 2 2 2 2 2 3 3 3 3 4 4 4 5 6 5 4 4 4 6 6 4 5 5 5 6 6 7 9 8 10 13
3 0 1 0 2 2 2 3 3 3 3 4 3 3 3 3 3 4 4 4 3 3 4 4 5 6 6 5 5 4 4 4 4 4 4 5 5 5 6 7 7 8 8 9
2 2 2 1 1 2 2 2 2 3 3 3 3 4 3 3 3 4 4 3 3 4 5 5 6 6 6 5 5 4 4 7 6 5 5 5 5 5 6 6 7 7 7 8
1 1 1 1 2 2 2 2 2 2 2 3 3 3 3 3 4 4 4 4 3 4 5 5 6 6 6 5 4 4 4 5 7 6 5 5 5 6 6 6 6 7 7 9
1 1 1 2 2 2 3 3 2 2 3 3 3 3 3 3 4 5 5 5 4 5 5 5 6 6 5 5 4 4 4 4 4 4 5 5 5 5 5 6 6 7 7 8
2 2 2 2 1 1 2 3 3 3 3 3 3 3 3 3 4 4 5 5 5 6 6 6 8 6 5 6 6 4 4 4 5 5 5 7 7 5 5 6 6 6 7 6
3 3 3 3 3 2 2 3 3 3 3 3 3 3 4 4 4 4 4 4 4 5 6 7 6 5 5 6 7 4 4 5 5 5 5 5 5 5 5 6 6 6 6 6
3 3 3 3 3 3 3 3 3 3 4 3 3 3 4 5 4 4 4 5 5 5 6 8 5 5 5 5 6 4 4 5 5 5 5 5 6 6 6 6 6 6 6 6
3 2 3 3 3 4 4 3 3 3 4 4 3 3 4 4 4 4 4 4 6 8 6 4 4 6 7 7 4 4 4 5 5 5 5 5 5 6 6 6 6 5 5 5
2 2 2 3 3 4 4 4 3 3 3 4 4 4 4 4 4 4 5 4 4 7 6 4 7 10 10 5 4 4 5 5 5 5 5 5 5 5 5 6 5 5 5 5
2 2 3 3 2 3 4 5 4 4 3 4 4 4 3 4 4 3 4 7 9 8 5 7 10 10 9 4 4 4 5 5 5 5 5 5 5 5 5 5 5 5 5 6
2 2 2 3 3 3 3 4 4 4 4 3 4 4 3 3 3 5 4 5 8 8 5 7 10 10 6 4 4 5 5 5 5 5 5 5 5 5 5 5 5 5 5 5
2 2 2 3 2 3 3 3 3 4 4 4 4 4 4 3 3 4 4 5 6 7 6 5 5 6 5 5 5 5 5 6 6 5 5 5 5 5 5 5 6 5 5 5
2 2 2 3 3 2 3 3 3 4 4 4 4 4 4 4 4 4 4 4 5 5 5 5 5 5 5 5 5 5 5 5 5 5 5 5 5 5 5 6 5 5 5 5
Wind_Direction
254 261 233 232 229 213 215 215 223 239 239 254 256 253 257 262 262 254 248 243 234 240 252 263 281 296 302 304 308 312 313 301 292 296 303 305 304 301 300 293 283 274 271 268
262 252 246 258 249 231 229 228 234 251 261 254 256 250 252 252 242 242 241 236 233 234 242 250 255 271 294 302 309 321 313 303 309 316 315 314 311 312 311 307 298 289 277 274
255 294 320 260 236 225 219 216 211 238 252 254 255 253 246 246 236 234 239 232 225 228 230 236 244 247 265 288 316 333 322 318 319 318 316 318 320 323 318 314 308 298 289 281
225 112 239 250 236 217 223 238 224 237 259 252 246 258 255 241 229 242 240 236 235 234 238 241 243 267 297 323 335 331 325 324 323 323 321 324 328 324 319 317 314 304 297 293
189 229 271 291 274 202 208 256 238 240 263 272 278 346 308 283 243 244 245 242 242 230 216 218 225 244 354 343 347 342 329 323 322 325 323 326 324 318 316 318 317 313 304 303
189 212 240 258 289 260 139 277 277 231 250 263 123 235 277 300 323 313 304 284 235 180 120 140 273 89 58 330 337 323 315 313 316 321 319 315 313 312 313 315 312 313 311 308
211 231 261 267 284 100 165 260 299 251 233 194 192 219 246 292 330 328 308 286 153 123 128 238 330 77 1 316 303 301 310 317 320 319 312 308 310 312 315 317 317 315 312 313
184 216 253 261 137 179 233 281 300 291 264 212 227 245 274 296 314 333 335 340 60 82 355 350 23 75 321 301 297 310 317 318 317 315 313 315 313 314 318 318 317 316 315 315
198 220 255 225 217 257 268 280 290 293 290 178 241 276 287 331 343 356 358 358 30 92 360 351 1 3 299 297 309 317 320 314 312 313 312 311 308 311 318 320 315 315 317 317
249 266 269 271 275 289 280 277 296 300 312 35 164 291 326 350 354 356 358 1 16 37 5 337 338 331 300 302 312 312 307 306 309 310 310 313 311 308 309 311 312 313 315 314
249 273 294 285 270 283 310 333 347 351 357 18 21 310 313 336 341 341 343 347 7 360 327 319 325 323 319 315 318 314 308 306 308 308 307 311 310 300 298 289 293 303 304 303
235 239 232 265 289 308 310 316 324 338 346 354 36 291 330 316 311 327 334 339 345 341 329 320 322 321 323 321 317 310 310 311 311 312 311 310 309 312 307 301 306 307 306 305
236 253 238 281 330 0 349 338 352 5 356 343 353 8 17 333 325 334 332 329 319 313 313 315 318 319 323 324 320 308 302 306 308 310 309 309 310 311 313 315 314 314 315 316
279 320 308 320 336 356 6 11 26 29 23 13 0 7 9 352 342 340 325 313 310 312 315 317 318 319 322 324 322 314 309 308 310 303 304 305 307 307 307 310 315 316 319 320
348 347 203 315 8 11 18 32 30 13 8 7 8 5 356 343 330 322 319 320 324 327 325 326 324 321 327 328 325 318 313 308 306 304 303 304 306 306 305 305 305 309 315 320
342 32 59 58 11 357 8 16 7 338 340 343 343 341 335 322 315 315 322 331 330 321 320 321 317 317 322 326 324 317 308 308 311 309 308 308 308 306 305 306 307 309 314 318
29 5 1 342 335 336 332 323 305 305 317 321 319 324 330 330 327 325 327 330 320 308 307 308 310 315 319 321 316 309 307 308 313 312 305 302 302 301 301 303 306 308 309 315
174 223 242 246 266 295 313 323 321 318 312 309 318 327 327 325 315 311 316 324 324 319 313 311 311 314 318 317 314 309 310 310 309 305 305 304 302 300 301 302 305 307 311 318
34 28 8 348 322 301 304 314 321 318 314 314 315 313 309 306 304 305 314 320 315 312 313 317 322 329 320 319 322 314 312 309 309 307 306 307 311 309 308 308 310 312 316 322
17 14 12 2 358 350 328 325 325 321 316 318 317 315 313 311 310 311 313 304 290 287 298 308 315 312 310 313 321 312 308 307 306 307 308 307 307 308 309 310 313 315 319 322
359 0 2 357 349 345 334 323 320 316 318 319 305 296 298 304 307 306 304 304 304 303 307 313 317 308 309 314 318 311 308 306 304 303 304 305 306 307 309 311 313 315 318 321
340 343 344 343 343 334 332 330 321 314 316 317 311 304 303 305 308 307 292 282 295 311 317 309 305 307 316 317 310 307 304 303 302 302 302 302 303 305 308 311 311 313 317 319
328 330 332 331 326 319 325 329 323 315 308 305 303 301 297 294 297 298 303 302 302 312 319 305 310 316 320 321 310 305 303 301 299 299 299 299 300 300 302 306 308 311 313 315
336 337 330 327 332 336 332 328 328 321 312 308 303 298 296 303 305 294 287 305 316 318 317 311 319 324 328 327 312 306 302 298 294 293 294 295 296 297 299 301 304 306 308 310
329 329 331 338 338 324 314 320 327 327 327 323 316 313 306 288 285 298 304 308 314 320 315 315 322 327 329 313 307 303 300 296 295 296 294 295 296 297 298 299 300 302 304 305
325 318 310 304 295 295 304 314 317 318 322 321 319 318 317 312 303 303 306 308 309 316 317 312 314 317 311 304 301 299 297 301 304 303 298 297 295 294 295 298 300 300 299 299
330 327 327 328 324 315 311 311 311 312 313 310 308 309 312 314 315 316 313 313 313 314 311 309 308 305 302 300 298 295 293 293 293 293 293 291 291 291 294 295 296 296 297 297
Height
1434 1432 1433 1431 1431 1434 1435 1434 1435 1428 1427 1418 1416 1416 1415 1415 1415 1415 1416 1417 1417 1418 1418 1418 1419 1419 1419 1419 1418 1417 1416 1415 1413 1412 1410 1408 1407 1405 1403 1402 1400 1398 1396 1394
1434 1430 1431 1430 1427 1427 1427 1427 1427 1424 1420 1413 1413 1413 1414 1413 1413 1413 1414 1415 1415 1416 1416 1416 1416 1416 1416 1416 1415 1414 1413 1412 1410 1409 1407 1405 1403 1401 1399 1397 1395 1393 1390 1388
1434 1432 1430 1429 1421 1420 1420 1419 1419 1418 1412 1410 1411 1411 1410 1410 1410 1410 1411 1412 1413 1413 1414 1414 1414 1414 1414 1413 1412 1411 1410 1409 1408 1406 1404 1402 1399 1397 1394 1392 1390 1387 1384 1382
1436 1437 1435 1418 1413 1412 1413 1412 1412 1410 1408 1407 1408 1407 1407 1407 1408 1408 1409 1410 1410 1411 1411 1412 1412 1412 1411 1411 1410 1409 1407 1406 1405 1403 1400 1398 1396 1393 1391 1388 1385 1382 1379 1376
1436 1435 1428 1417 1412 1412 1413 1411 1408 1408 1406 1405 1406 1406 1405 1405 1405 1406 1407 1407 1408 1408 1409 1409 1409 1409 1409 1408 1407 1406 1405 1403 1401 1400 1397 1395 1392 1390 1387 1384 1381 1378 1374 1371
1432 1432 1427 1415 1410 1408 1411 1412 1405 1404 1404 1404 1405 1408 1406 1404 1404 1404 1405 1405 1406 1406 1406 1407 1407 1407 1406 1406 1405 1404 1402 1401 1399 1397 1395 1392 1390 1387 1384 1381 1378 1374 1370 1367
1428 1428 1421 1412 1409 1408 1416 1412 1405 1402 1401 1402 1403 1404 1403 1403 1403 1403 1403 1404 1404 1404 1404 1405 1405 1404 1404 1403 1402 1401 1400 1398 1396 1394 1392 1389 1386 1383 1381 1377 1374 1370 1367 1363
1428 1428 1422 1408 1409 1411 1409 1405 1403 1402 1401 1401 1401 1401 1401 1402 1401 1401 1401 1402 1402 1402 1402 1402 1402 1402 1401 1400 1399 1398 1396 1395 1392 1390 1388 1385 1382 1379 1376 1373 1370 1366 1362 1359
1419 1416 1409 1407 1407 1406 1405 1404 1402 1401 1400 1400 1400 1400 1400 1400 1400 1400 1400 1400 1400 1400 1400 1400 1400 1399 1398 1397 1396 1394 1393 1391 1389 1386 1384 1381 1379 1375 1372 1369 1366 1362 1359 1355
1415 1409 1406 1405 1404 1404 1403 1402 1401 1400 1400 1399 1399 1399 1399 1399 1399 1399 1399 1399 1398 1398 1397 1397 1397 1397 1395 1394 1393 1391 1389 1387 1384 1382 1379 1377 1375 1372 1369 1366 1363 1359 1356 1352
1411 1407 1404 1402 1402 1402 1401 1400 1400 1399 1399 1399 1398 1398 1398 1398 1398 1398 1397 1397 1397 1396 1395 1394 1394 1393 1392 1391 1389 1387 1385 1382 1380 1378 1375 1373 1370 1368 1365 1362 1360 1357 1353 1350
1406 1402 1402 1400 1400 1400 1399 1399 1398 1398 1397 1397 1397 1397 1397 1397 1396 1396 1395 1395 1394 1394 1393 1392 1391 1390 1389 1387 1385 1383 1380 1378 1376 1374 1371 1368 1366 1363 1361 1359 1356 1353 1350 1347
1399 1399 1399 1398 1398 1398 1398 1397 1397 1396 1396 1396 1395 1395 1395 1394 1394 1394 1393 1393 1392 1391 1390 1389 1388 1386 1385 1383 1381 1379 1377 1374 1372 1370 1367 1365 1362 1359 1355 1353 1351 1349 1346 1343
1397 1397 1396 1396 1396 1396 1396 1396 1395 1395 1394 1394 1394 1393 1393 1392 1392 1391 1391 1390 1389 1389 1387 1386 1384 1383 1381 1379 1377 1375 1373 1371 1368 1366 1364 1361 1358 1356 1353 1349 1345 1342 1341 1339
1395 1395 1395 1395 1395 1395 1394 1394 1393 1393 1392 1392 1392 1391 1391 1390 1389 1388 1388 1387 1386 1385 1384 1382 1381 1379 1377 1375 1373 1371 1369 1367 1364 1362 1360 1357 1354 1352 1349 1346 1343 1339 1337 1334
1393 1393 1394 1393 1393 1393 1393 1392 1391 1391 1390 1390 1389 1389 1388 1388 1387 1386 1385 1384 1383 1382 1380 1379 1377 1375 1374 1372 1369 1367 1365 1363 1361 1358 1356 1353 1351 1348 1346 1343 1340 1337 1334 1331
1392 1392 1392 1392 1391 1391 1391 1390 1390 1389 1388 1388 1387 1386 1386 1385 1384 1383 1383 1382 1380 1379 1377 1376 1374 1372 1370 1368 1366 1363 1361 1359 1357 1355 1352 1350 1348 1345 1343 1340 1337 1334 1332 1330
1392 1391 1391 1391 1390 1389 1389 1388 1388 1387 1386 1385 1385 1384 1383 1382 1381 1380 1379 1378 1377 1375 1374 1372 1370 1368 1366 1364 1362 1360 1357 1355 1353 1351 1349 1346 1344 1342 1340 1337 1334 1332 1329 1327
1390 1390 1390 1389 1388 1388 1387 1386 1385 1385 1384 1383 1382 1381 1381 1380 1379 1377 1376 1375 1373 1371 1370 1368 1366 1364 1362 1360 1358 1356 1354 1352 1349 1347 1345 1343 1341 1339 1337 1334 1332 1329 1327 1325
1389 1389 1388 1387 1387 1386 1385 1384 1383 1382 1382 1381 1380 1379 1378 1377 1376 1374 1373 1371 1370 1368 1366 1364 1363 1361 1359 1357 1355 1353 1350 1348 1346 1344 1342 1340 1338 1336 1334 1332 1329 1327 1325 1323
1388 1388 1387 1386 1385 1384 1384 1383 1381 1380 1380 1379 1378 1376 1375 1374 1373 1372 1370 1368 1366 1365 1363 1361 1359 1357 1355 1354 1352 1350 1347 1346 1344 1341 1340 1337 1335 1333 1331 1329 1327 1325 1323 1321
1387 1386 1386 1385 1384 1383 1382 1381 1380 1379 1378 1377 1375 1374 1373 1371 1370 1369 1367 1365 1363 1361 1359 1357 1356 1354 1352 1351 1349 1346 1345 1343 1341 1339 1337 1335 1333 1331 1329 1327 1325 1323 1321 1319
1386 1386 1385 1384 1383 1382 1381 1380 1378 1377 1376 1374 1373 1372 1371 1369 1367 1366 1363 1362 1360 1358 1356 1354 1353 1351 1349 1347 1345 1343 1341 1339 1337 1336 1334 1332 1330 1328 1326 1325 1323 1321 1319 1317
1385 1384 1384 1383 1382 1380 1379 1378 1377 1375 1374 1373 1371 1370 1368 1366 1365 1363 1361 1359 1357 1355 1353 1351 1350 1348 1346 1344 1342 1340 1338 1336 1334 1332 1331 1329 1327 1326 1324 1322 1320 1319 1317 1315
1384 1383 1382 1381 1380 1379 1378 1376 1375 1373 1372 1371 1369 1368 1366 1364 1362 1360 1358 1356 1354 1352 1350 1348 1346 1344 1342 1341 1339 1337 1335 1333 1331 1329 1328 1326 1324 1323 1321 1320 1318 1317 1315 1313
1383 1382 1381 1380 1379 1378 1376 1375 1373 1372 1370 1368 1367 1365 1364 1362 1360 1358 1355 1353 1351 1349 1347 1345 1343 1341 1339 1337 1335 1333 1332 1330 1328 1326 1325 1323 1321 1320 1318 1317 1316 1314 1313 1311
1382 1381 1380 1379 1378 1377 1375 1374 1372 1370 1369 1367 1365 1363 1361 1359 1357 1355 1353 1351 1349 1347 1345 1343 1340 1338 1336 1334 1332 1330 1329 1327 1325 1323 1322 1320 1319 1317 1316 1314 1313 1312 1311 1309